Regional Weather Roundup
Issued by NWS

Home | Current Version | Previous Version | Text Only | Print | Product List | Glossary Off
Versions: 1 2 3 4 5 6 7 8 9 10 11 12 13 14 15 16 17 18 19 20 21 22 23 24 25 26 27 28 29 30 31 32 33 34 35 36 37 38 39 40 41 42 43 44 45 46 47 48 49 50

000
ASUS43 KLOT 222009
RWRIL

ILLINOIS REGIONAL WEATHER ROUNDUP
NATIONAL WEATHER SERVICE CHICAGO/ROMEOVILLE IL
200 PM CST MON JAN 22 2018

NOTE: "FAIR" INDICATES FEW OR NO CLOUDS BELOW 12,000 FEET WITH NO
SIGNIFICANT WEATHER AND/OR OBSTRUCTIONS TO VISIBILITY.

* THESE STATIONS ARE NOT UNDER NWS QUALITY CONTROL. THEY ALSO MAY NOT
  REPORT WEATHER SUCH AS PRECIPITATION OR FOG.

ILZ001-002-007-009-015-016-024-222100-
NORTHWEST ILLINOIS

CITY           SKY/WX    TMP DP  RH WIND       PRES   REMARKS
MOLINE         FAIR      56  41  57 SW18G28   29.39F
STERLING*      FAIR      57  49  74 VRB5      29.40F
$$

ILZ003-004-008-010-011-017-018-222100-
NORTH CENTRAL ILLINOIS

CITY           SKY/WX    TMP DP  RH WIND       PRES   REMARKS
ROCKFORD       PTSUNNY   53  49  86 S14       29.43F
$$

ILZ005-006-012>014-019>023-222100-
NORTHEAST ILLINOIS

CITY           SKY/WX    TMP DP  RH WIND       PRES   REMARKS
CHICAGO-OHARE  CLOUDY    52  49  89 S18       29.44F
CHICAGO-MIDWAY PTSUNNY   54  50  86 S18G30    29.46F
AURORA         CLOUDY    53  51  93 S10       29.43F
WAUKEGAN       CLOUDY    51  50  96 S14G22    29.43F FOG
DUPAGE AIRPORT CLOUDY    52  51  97 S15G24    29.43F
WHEELING       CLOUDY    53  51  93 S17G25    29.46F
NORTHERLY ISL    N/A     51  47  86 S17         N/A
$$

LMZ740>746-222100-
SOUTHERN LAKE MICHIGAN

STATION/POSITION SKY/WX   TEMP    WIND        PRES    VSBY  WAVE
                          AIR SEA DIR/SP/G                  HT/PER
                          (F)     (DEG/KT/KT) (MB)    (MI)  (FT/S)
HARRISON CRIB              50     190/ 24/ 25   N/A
BURNHAM HARBOR             51     180/ 18/ 20   N/A
CALUMET HARBOR             51     180/ 13/ 23  997.6F
BURNS HARBOR               51     200/ 20/ 29  999.7F
MICHIGAN CITY              52     180/ 23/ 29   N/A
$$

ILZ025>027-034>036-040-047-049-050-058-095>099-222100-
WEST-CENTRAL ILLINOIS

CITY           SKY/WX    TMP DP  RH WIND       PRES   REMARKS
QUINCY         MOSUNNY   46  31  55 SW24G33   29.45S
$$

ILZ028>032-037-038-041>044-048-051>054-059>061-222100-
CENTRAL ILLINOIS

CITY           SKY/WX    TMP DP  RH WIND       PRES   REMARKS
BLOOMINGTON    CLOUDY    56  48  74 S23G29    29.43F
DECATUR        PTSUNNY   57  48  72 S23G33    29.46F
PEORIA         FAIR      59  44  57 SW20G30   29.39F
SPRINGFIELD    FAIR      59  46  62 S18G33    29.40F
TAYLORVILLE    NOT AVBL
$$

ILZ033-039-045-046-055>057-062-063-222100-
EAST-CENTRAL ILLINOIS

CITY           SKY/WX    TMP DP  RH WIND       PRES   REMARKS
CHAMPAIGN      PTSUNNY   54  50  86 S28G33    29.48F
MATTOON        PTSUNNY   54  48  80 S20G31    29.49F
$$

ILZ079-100>102-222100-
SOUTHWEST ILLINOIS

CITY           SKY/WX    TMP DP  RH WIND       PRES   REMARKS
ALTON          CLOUDY    59  39  47 S23G35    29.45F
BELLEVILLE     SUNNY     61  34  37 SW24G33   29.45F
CAHOKIA*       SUNNY     60  31  33 SW16G28   29.45F
$$

ILZ064>066-069>071-074>076-080>082-084>086-088>090-092>094-222100-
SOUTH-CENTRAL ILLINOIS

CITY           SKY/WX    TMP DP  RH WIND       PRES   REMARKS
CARBONDALE     FAIR      59  43  55 S25G37    29.54F
MARION         MOSUNNY   59  39  47 S23       29.56F
MT. VERNON     FAIR      59  44  57 S24G32    29.52F
$$

ILZ067-068-072-073-078-083-087-091-222100-
SOUTHEAST ILLINOIS

CITY           SKY/WX    TMP DP  RH WIND       PRES   REMARKS
LAWRENCEVILLE  PTSUNNY   57  52  83 S22       29.57F
$$

ABBREVIATIONS USED IN REMARKS
   TC - TEMPERATURE IN CELSIUS
  WCI - WIND CHILL INDEX
   HX - HEAT INDEX
  VSB - VISIBILITY
$$





USA.gov is the U.S. government's official web portal to all federal, state and local government web resources and services.